Other Public Products
Issued by NWS Grand Forks, ND

Home | Current Version | Previous Version | Text Only | Print | Product List | Glossary Off
Versions: 1 2 3 4 5 6 7 8 9 10 11 12 13 14 15 16 17 18 19 20 21 22 23 24 25 26 27 28 29 30 31 32 33 34 35 36 37 38 39 40 41 42 43 44 45 46 47 48 49 50

000
FPUS83 KFGF 301131
OPUFGF
PRAIRIE TO PINES WEATHER ROUNDUP
NATIONAL WEATHER SERVICE EASTERN NORTH DAKOTA/GRAND FORKS ND
600 AM CDT SUN AUG 30 2015

 **SATELLITE DATA USED TO AUGMENT SKY COVER AT AUTOMATED STATIONS**
 *****  WEATHER ACROSS EASTERN NORTH DAKOTA  *****

CITY           SKY/WX    TMP DP  RH WIND       PRES   REMARKS
GRAND FORKS    PTCLDY    65  64  97 S10       29.77S
GRAND FORKS AF PTCLDY    64  64 100 S9        29.77S
GRAND CITY NWS   N/A     64 N/A N/A S9          N/A
BUXTON         NOT AVBL
DEVILS LAKE    MOCLDY    68  61  77 S9        29.73F
FARGO          CLEAR     65  62  90 S12       29.83S
WAHPETON ARPT  SUNNY     61  59  94 SE9       29.86S
$$

 *****  WEATHER ACROSS CENTRAL AND WESTERN NORTH DAKOTA  *****

CITY           SKY/WX    TMP DP  RH WIND       PRES   REMARKS
JAMESTOWN      CLOUDY    65  64  97 S8        29.79S FOG
BISMARCK       PTCLDY    64  61  90 E5        29.75F
MINOT          MOCLDY    70  57  63 SE6       29.68F
MINOT AFB      MOCLDY    64  61  91 NE1       29.67F
GARRISON         N/A     60  56  86 SE5       29.72F
WILLISTON      CLOUDY    64  55  72 NW3       29.66S
DICKINSON      MOCLDY    63  50  62 S12       29.71F
HETTINGER      MOCLDY    61  49  64 SE5       29.77F
$$

 *****  OTHER OBSERVATIONS NORTHEAST NORTH DAKOTA  *****

CITY           SKY/WX    TMP DP  RH WIND       PRES   REMARKS
WALHALLA       FAIR      66  66 100 MISG      29.75R
LANGDON        FAIR      68  68 100 S8        29.77S
CAVALIER       FOG       66  66 100 S7        29.75F VSB 1/4
GRAFTON        FAIR      66  66 100 SE10      29.77S
CANDO          FAIR      64  64 100 SE6       29.75R
FORT TOTTEN    NOT AVBL
ROLLA          PTSUNNY   63  63 100 S8        29.75S
RUGBY          FAIR      63  63 100 E6        29.72F
 ***** THE ABOVE OBSERVATIONS ARE NON NWS ARE NOT QUALITY
        CONTROLLED AND MAY MIS-REPORT RAIN FOR SNOW...
$$

 *****  OTHER OBSERVATIONS SOUTHEAST NORTH DAKOTA *****

CITY           SKY/WX    TMP DP  RH WIND       PRES   REMARKS
COOPERSTOWN    NOT AVBL
VALLEY CITY    CLOUDY    64  64 100 S10       29.81S FOG
OAKES            N/A     64  64 100 S8        29.84R
GWINNER          N/A     66  66 100 S12       29.84S
SHEYENNE NWR     N/A     59  59  99 SE2       29.95S
BUFFALO        NOT AVBL
WYNDMERE         N/A     61  61 100 SE5         N/A
 ***** THE ABOVE OBSERVATIONS ARE NON NWS ARE NOT QUALITY
       CONTROLLED AND MAY MIS-REPORT RAIN FOR SNOW...
$$

  *****  WEATHER ACROSS NORTHERN MINNESOTA  *****

CITY           SKY/WX    TMP DP  RH WIND       PRES   REMARKS
FLAG ISLAND    PTCLDY    64  64 100 S3        29.78S
WARROAD        FAIR      66  63  88 SW7       29.80S
ROSEAU         PTCLDY    64  59  82 S7        29.80S
HALLOCK        PTCLDY    66  64  94 S12       29.76F
THF RVR FALLS  CLEAR    N/A N/A N/A S7        29.81F
HALSTAD        NOT AVBL
FOSSTON        CLEAR     61  61 100 S8        29.85F
BAUDETTE       PTCLDY    63  61  93 S8        29.81S
WASKISH        PTCLDY    64  63  94 S5        29.85S
CROOKSTON      CLEAR     64  63  94 S14       29.81S
$$
  *****  WEATHER ACROSS CENTRAL AND WEST MINNESOTA  *****

CITY           SKY/WX    TMP DP  RH WIND       PRES   REMARKS
BEMIDJI        CLEAR     61  61  99 S6        29.89R
PARK RAPIDS    CLOUDY    63  61  93 S8        29.90S
WADENA         PTCLDY    57  57 100 CALM      29.91R FOG
DETROIT LAKES  PTCLDY    63  63 100 S8        29.89S
MOORHEAD       PTCLDY    63  63 100 S13       29.85R
FERGUS FALLS   CLEAR     63  63 100 S8        29.88S
ELBOW LAKE     FAIR      61  60  97 S12       29.89S
MORRIS MN      PTCLDY    61  61 100 SE10      29.90S FOG
STAPLES        CLOUDY    61  61 100 S9        29.92S
WHEATON        CLEAR     57  57 100 SE8       29.89S
$$
  *****  WEATHER ELSEWHERE ACROSS MINNESOTA  *****

CITY           SKY/WX    TMP DP  RH WIND       PRES   REMARKS
DULUTH         CLOUDY    63  61  93 SW10      29.95S
INTRNTL FALLS  PTCLDY    62  61  96 SW7       29.84S
ELY            MOCLDY    61  59  94 SW7       29.92R
CLOQUET        CLOUDY    64  61  88 S7        29.95S
BRAINERD       CLOUDY    62  60  93 S9        29.93S
HIBBING        CLOUDY    61  59  93 VRB5      29.93S
ALEXANDRIA     CLEAR     62  61  96 S9        29.93F
SAINT CLOUD    CLOUDY    60  60 100 S12       29.96S
MINNEAPOLIS    MOCLDY    63  60  90 S9        29.99F
$$

  *****  WEATHER ACROSS SOUTH DAKOTA  *****

CITY           SKY/WX    TMP DP  RH WIND       PRES   REMARKS
SIOUX FALLS    CLOUDY    62  60  93 S13       29.99R FOG
BROOKINGS      CLOUDY    63  57  82 S10       29.98S
WATERTOWN      CLEAR     62  60  93 S12       29.92F
HURON          CLEAR     64  62  93 S10       29.88F
SISSETON         N/A     64  61  90 S8        29.85S
ABERDEEN       CLEAR     65  62  90 S12       29.85S
MITCHELL       CLEAR     63  62  97 S7        29.92S
PIERRE         PTCLDY    67  56  67 S8        29.82F
MOBRIDGE       MOCLDY    66  64  93 SE10      29.78F
RAPID CITY     MOCLDY    64  46  52 SE6       29.85F
$$

  *****  SOME WEATHER IN NEARBY STATES *****

CITY           SKY/WX    TMP DP  RH WIND       PRES   REMARKS
GLASGOW MT     MOCLDY    70  47  43 NW16      29.67S HAZE
GREAT FALLS MT CLOUDY    63  48  58 SE8       29.82R HAZE
CHEYENNE WY    CLEAR     57  42  57 W12       30.13S
SCOTTSBLUFF NE PTCLDY    68  42  38 SE6       29.99S
OMAHA NE       CLOUDY    63  62  97 S5        30.03S FOG
DES MOINES IA  PTCLDY    62  59  90 CALM      30.04R VSB 1/2
DAVENPORT IA   FOG       59  58  96 CALM      30.05S VSB 1/4
CHICAGO IL     CLOUDY    64  63  96 N5        30.04R FOG
EAU CLAIRE WI  CLEAR     56  54  93 CALM      30.02S
LA CROSSE WI   FOG       59  58  96 SE5       30.04S VSB 1/4
$$

  *****  SOME NATIONAL WEATHER *****

CITY           SKY/WX    TMP DP  RH WIND       PRES   REMARKS
LA GUARDIA NY  PTCLDY    73  62  68 SW5       30.09R
RALEIGH NC     MOCLDY    64  61  90 CALM      30.16R
ATLANTA GA     CLOUDY    72  64  76 NE7       30.10S
NEW ORLEANS LA PTCLDY    75  66  73 CALM      30.02R
OKLAHOMA CITY  PTCLDY    66  64  93 NW8       29.98R
ALBUQUERQUE NM CLEAR     67  48  50 NE7       30.23S
SALT LAKE CITY MOCLDY    82  45  27 S15       29.90S
LOS ANGELES CA CLEAR     72  67  84 SW3       29.86S
BOISE ID       CLEAR     63  43  48 W3        29.91R
SEATTLE WA     LGT RAIN  57  55  93 S5        29.81R
$$

*** WEATHER ACROSS MANITOBA...SASKATCHEWAN AND ONTARIO ***
                ***ONTARIO***

CITY           SKY/WX    TMP DP  RH WIND       PRES   REMARKS
GERALDTON      CLOUDY    61  61 100 S10       29.88F
THUNDER BAY    PTCLDY    54  54 100 CALM      29.89F FOG
SIOUX LOOKOUT  CLOUDY    66  64  94 SW8       29.79F
TORONTO        MOCLDY    66  61  82 NW5       30.07R
BIG TROUT LK   CLOUDY    68  61  77 W9G17     29.58R
PICKLE LAKE    CLOUDY    66  64  94 SW10G18   29.71
DRYDEN         CLOUDY    66  63  88 SW10G17   29.80F
KENORA         CLOUDY    66  64  94 SW7       29.80S
$$
                *** MANITOBA***

CITY           SKY/WX    TMP DP  RH WIND       PRES   REMARKS
BRANDON        MOCLDY    63  59  88 E7        29.71F SMOKE
DAUPHIN        CLEAR     55  54  94 NW5       29.70S
ISLAND LAKE    CLOUDY    64  63  94 N7        29.65R
PILOT MOUND      N/A     66  64  94 S9          N/A
THE PAS        LGT RAIN  61  59  94 E5        29.70R
THOMPSON       DRIZZLE   50  48  93 N8        29.77R FOG
WINNIPEG       PTCLDY    64  63  94 S6        29.74S
LYNN LAKE      CLOUDY    52  50  93 MISG      29.78R
CHURCHILL      CLOUDY    46  45  93 E13G20    29.86R
$$
                ***SASKATCHEWAN***

CITY           SKY/WX    TMP DP  RH WIND       PRES   REMARKS
ESTEVAN        CLOUDY    64  55  72 VRB2      29.67S SMOKE
KINDERSLEY     MOCLDY    61  41  48 S7        29.62R
LLOYDMINSTER   CLEAR     55  46  71 SW10      29.52S
PRINCE ALBERT  MOCLDY    61  55  82 CALM      29.56F
REGINA         MOCLDY    70  50  49 E8        29.61F SMOKE
YORKTON        LGT RAIN  59  55  88 SE3       29.69F



USA.gov is the U.S. government's official web portal to all federal, state and local government web resources and services.